Regional Weather Roundup
Issued by NWS Little Rock, AR

Home | Current Version | Previous Version | Text Only | Print | Product List | Glossary Off
Versions: 1 2 3 4 5 6 7 8 9 10 11 12 13 14 15 16 17 18 19 20 21 22 23 24 25 26 27 28 29 30 31 32 33 34 35 36 37 38 39 40 41 42 43 44 45 46 47 48 49 50

000
ASUS44 KLZK 251705
RWRLZK

WEATHER ROUNDUP FOR ARKANSAS
NATIONAL WEATHER SERVICE LITTLE ROCK AR
1200 PM CDT SAT APR 25 2015

NOTE: "FAIR" INDICATES FEW OR NO CLOUDS BELOW 12,000 FEET WITH NO
SIGNIFICANT WEATHER AND/OR OBSTRUCTIONS TO VISIBILITY.

ARZ001-003-010-029-251800-
NORTHWEST ARKANSAS

CITY           SKY/WX    TMP DP  RH WIND       PRES   REMARKS
FAYETTEVILLE   SUNNY     72  55  55 W15G22    29.63R
FORT SMITH     SUNNY     76  53  44 W16       29.62S
HARRISON       LGT RAIN  75  49  39 W23G31    29.57S
BENTONVILLE    SUNNY     72  52  49 W16G23    29.61F
ROGERS         SUNNY     72  53  51 W18G28    29.61S
SILOAM SPGS    SUNNY     73  52  46 W17       29.63S
HIGHFILL       SUNNY     73  53  49 W16G23    29.60F
SPRINGDALE     SUNNY     72  54  53 W12G29    29.63R
$$

ARZ004-005-016-251800-
NORTH CENTRAL ARKANSAS

CITY           SKY/WX    TMP DP  RH WIND       PRES   REMARKS
BATESVILLE     SUNNY     75  61  60 SW12      29.57F
FLIPPIN        SUNNY     79  50  36 SW20G25   29.53F
MTN HOME       MOSUNNY   78  49  35 W9G24     29.54S
$$

ARZ040-041-251800-
WEST CENTRAL ARKANSAS

CITY           SKY/WX    TMP DP  RH WIND       PRES   REMARKS
MENA           SUNNY     77  59  53 SW9G16    29.66F
MOUNT IDA      SUNNY     77  56  48 VRB6      29.62F
$$

ARZ009-017-025-026-028-251800-
NORTHEAST ARKANSAS

CITY           SKY/WX    TMP DP  RH WIND       PRES   REMARKS
CORNING          N/A     72  63  73 SW15G22   29.55F
JONESBORO      PTSUNNY   70  62  76 SW20G29   29.58F
NEWPORT        MOSUNNY   74  63  68 S22       29.58F
WALNUT RIDGE   SUNNY     73  61  64 SW20      29.55F
BLYTHEVILLE    PTSUNNY   72  65  78 SW18G24   29.58F
$$

ARZ022-023-033-042-044-251800-
CENTRAL ARKANSAS

CITY           SKY/WX    TMP DP  RH WIND       PRES   REMARKS
LITTLE ROCK    PTSUNNY   75  62  64 SW12G22   29.63F
N LITTLE ROCK  PTSUNNY   72  64  76 W9G20     29.63F
JACKSONVILLE   MOSUNNY   74  63  66 SW13      29.61F
SEARCY         MOSUNNY   72  62  71 SW10      29.62S
HOT SPRINGS    SUNNY     75  63  66 SW12      29.64F
RUSSELLVILLE   SUNNY     76  58  53 W8        29.60F
$$

ARZ036-251800-
EAST ARKANSAS

CITY           SKY/WX    TMP DP  RH WIND       PRES   REMARKS
WEST MEMPHIS   CLOUDY    72  69  90 S12G17    29.62F
$$

ARZ050-053-066-070-073-251800-
SOUTHWEST ARKANSAS

CITY           SKY/WX    TMP DP  RH WIND       PRES   REMARKS
ARKADELPHIA    FAIR      74  69  84 SW13      29.67F
CAMDEN         CLOUDY    79  68  69 NE8       29.66F HAZE
TEXARKANA      MOSUNNY   80  66  62 W17       29.67S
EL DORADO      CLOUDY    77  71  82 SW9       29.68F
DE QUEEN       SUNNY     77  60  55 W12       29.65F
$$

ARZ056-057-069-251800-
SOUTHEAST ARKANSAS

CITY           SKY/WX    TMP DP  RH WIND       PRES   REMARKS
PINE BLUFF     CLOUDY    73  67  81 SW15G21   29.65S
STUTTGART      CLOUDY    73  66  78 W16       29.65R
MONTICELLO     CLOUDY    76  72  87 W12G22    29.67S

$$





USA.gov is the U.S. government's official web portal to all federal, state and local government web resources and services.